#timestamp,LO_Frequency,Hit,StdDev 
1591174815.3,286047023.1,P
1591174835.1,286047018.2,N
1591174855.9,286047015.9,N
1591174875.7,286047013.5,N
1591174895.5,286047009.6,N
1591174915.4,286047007.7,N
1591174935.2,286047006.5,N
1591174955.1,286047007.1,N
1591174956.0,286047007.1,N
1591174975.8,286047005.1,N
1591174995.6,286047005.8,N
1591175015.5,286047004.1,N
1591175035.3,286047001.4,N
1591175055.1,286047001.9,N
1591175075.9,286046999.9,N
1591175095.7,286046998.4,N
1591175115.6,286047000.8,N
1591175135.4,286047000.0,N
1591175155.2,286046998.9,N
1591175175.1,286046998.0,N
1591175176.0,286046998.0,N
1591175195.8,286046995.0,N
1591175215.7,286046996.5,N
1591175235.5,286046997.2,N
1591175255.3,286046998.8,N
1591175275.2,286046995.5,N
1591175295.0,286046995.0,N
1591175295.9,286046995.0,N
1591175315.7,286046994.9,N
1591175335.6,286046995.6,N
1591175355.4,286046993.8,N
1591175375.3,286046993.3,N
1591175395.1,286046993.7,N
1591175415.8,286046994.8,N
1591175435.7,286046994.4,N
1591175455.5,286046994.6,N
1591175475.4,286046994.7,N
1591175495.2,286046990.1,N
1591175515.0,286046992.4,N
1591175515.9,286046992.4,N
1591175535.8,286046992.2,N
1591175555.6,286046992.8,N
1591175575.4,286046992.7,N
1591175595.3,286046990.4,Y
1591175615.1,286046993.4,P
1591175635.9,286046996.2,P
1591175655.7,286046995.7,P
1591175675.5,286046993.4,Y
1591175695.4,286046999.8,P
1591175715.2,286046998.1,N
1591175735.1,286046998.8,N
1591175736.0,286046998.8,N
1591175755.8,286046998.3,N
1591175775.6,286046998.8,N
1591175795.5,286046999.5,N
1591175815.3,286046999.2,N
1591175835.2,286046999.0,N
1591175855.9,286046995.4,Y
1591175875.7,286046997.6,P
1591175895.6,286046997.6,P
1591175915.4,286046993.9,P
1591175935.2,286046993.6,Y
1591175955.1,286046996.5,P
1591175956.0,286046996.5,P
1591175975.8,286046996.9,P
1591175995.7,286046999.2,Y
1591176015.5,286046999.7,P
1591176035.4,286047002.7,N
1591176055.2,286047002.2,N
1591176075.0,286046999.9,N
1591176075.9,286046999.9,N
1591176095.8,286047002.4,N
1591176115.6,286047003.7,N
1591176135.4,286047003.3,N
1591176155.3,286047003.3,N
1591176175.1,286047005.1,N
1591176195.9,286047005.1,N
1591176215.7,286047004.8,N
1591176235.5,286047005.7,N
1591176255.4,286047005.3,N
1591176275.2,286047005.7,N
1591176295.1,286047005.5,N
1591176296.0,286047005.5,N
1591176315.8,286047002.9,N
1591176335.6,286047005.5,N
1591176355.5,286047005.5,N
1591176375.3,286047004.2,N
1591176395.1,286047001.3,N
1591176415.9,286047004.4,N
1591176435.7,286047001.5,N
1591176455.6,286047001.7,N
1591176475.4,286047001.6,N
1591176495.2,286047002.5,N
1591176515.1,286047000.8,N
1591176516.0,286047000.8,N
1591176535.8,286047002.1,N
1591176555.7,286047002.4,N
1591176575.5,286047000.5,N
1591176595.3,286046999.8,N
1591176615.2,286046998.5,N
1591176635.0,286047000.5,N
1591176635.9,286047000.5,N
1591176655.7,286046998.2,N
1591176675.6,286046998.9,N
1591176695.4,286046998.7,N
1591176715.3,286047000.6,N
1591176735.1,286047000.4,N
1591176736.0,286047000.4,N
1591176755.8,286047002.3,N
1591176775.7,286047001.4,N
1591176795.5,286047001.5,N
1591176815.4,286047004.3,N
1591176835.2,286047004.0,N
1591176855.0,286047001.3,N
1591176855.9,286047001.3,N
1591176875.8,286047001.4,N
1591176895.6,286047001.6,N
1591176915.4,286047004.0,N
1591176935.3,286047004.4,N
1591176955.1,286047003.7,N
1591176975.9,286047002.7,N
1591176995.7,286047001.5,N
1591177015.5,286047002.2,N
1591177035.4,286047002.1,N
1591177055.2,286047002.3,N
1591177075.0,286047001.6,N
1591177076.0,286047001.6,N
1591177095.8,286047003.6,N
1591177115.6,286047003.8,N
1591177135.5,286047004.2,N
1591177155.3,286047003.5,N
1591177175.1,286047003.3,N
1591177195.9,286047003.8,N
1591177215.7,286047003.2,N
1591177235.6,286047004.6,Y
1591177255.4,286047002.5,P
1591177275.2,286046998.1,P
1591177295.1,286047000.6,N
1591177296.0,286047000.6,N
1591177315.8,286047000.9,N
1591177335.7,286047000.1,N
1591177355.5,286047001.8,N
1591177375.3,286047001.3,N
1591177395.2,286047003.4,N
1591177415.0,286047003.2,N
1591177415.9,286047003.2,N
1591177435.7,286047003.2,N
1591177455.6,286047006.0,Y
1591177475.4,286047001.9,P
1591177495.3,286047001.3,P
1591177515.1,286047004.2,P
1591177535.8,286047003.8,Y
1591177555.7,286047002.4,P
1591177575.5,286047002.7,P
1591177595.4,286047000.3,N
1591177615.2,286047001.0,N
1591177635.0,286047002.3,N
1591177635.9,286047002.3,N
1591177655.8,286047000.7,N
1591177675.6,286046998.5,N
1591177695.5,286046998.3,N
1591177715.3,286046999.5,N
1591177735.1,286046999.2,N
1591177755.9,286046997.7,N
1591177775.7,286046994.9,Y
1591177795.5,286046997.9,P
1591177815.4,286046998.0,N
1591177835.2,286046995.6,P
1591177855.1,286046995.2,N
1591177856.0,286046995.2,N
1591177875.8,286046996.8,N
1591177895.6,286046998.8,N
1591177915.5,286047000.8,N
1591177935.3,286046996.5,N
1591177955.2,286046997.5,N
1591177975.9,286046999.5,N
1591177995.7,286046998.7,N
1591178015.6,286046998.9,N
1591178035.4,286046999.4,N
1591178055.2,286046998.4,N
1591178075.1,286046998.4,N
1591178076.0,286046998.4,N
1591178095.8,286046998.9,N
1591178115.7,286046997.0,N
1591178135.5,286046999.5,N
1591178155.3,286046996.8,N
1591178175.2,286046996.9,N
1591178195.0,286046997.2,N
1591178195.9,286046997.2,N
1591178215.8,286046997.5,N
1591178235.6,286046997.4,N
1591178255.4,286046997.6,N
1591178275.3,286046997.8,N
1591178295.1,286046999.1,N
1591178315.8,286046999.3,N
1591178335.7,286046999.4,N
1591178355.5,286046999.6,N
1591178375.4,286046999.1,N
1591178395.2,286046999.0,N
